EHI
0 0 0 0 0 0 0 0 0 0 0 0 0 0 0 0 0 0 0 0 0 0 0 0 0 0 0 0 0 0 0 0 0 0 0 0 0 0 0 0 0 0 0
0 0 0 0 0 0 0 0 0 0 0 0 0 0 0 0 0 0 0 0 0 0 0 0 0 0 0 0 0 0 0 0 0 0 0 0 0 0 0 0 0 0 0
0 0 0 0 0 0 0 0 0 0 0 0 0 0 0 0 0 0 0 0 0 0 0 0 0 0 0 0 0 0 0 0 0 0 0 0 0 0 0 0 0 0 0
0 0 0 0 0 0 0 0 0 0 0 0 0 0 0 0 0 0 0 0 0 0 0 0 0 0 0 0 0 0 0 0 0 0 0 0 0 0 0 0 0 0 0
0 0 0 0 0 0 0 0 0 0 0 0 0 0 0 0 0 0 0 0 0 0 0 0 0 0 0 0 0 0 0 0 0 0 0 0 0 0 0 0 0 0 0
0 0 0 0 0 0 0 0 0 0 0 0 0 0 0 0 0 0 0 0 0 0 0 0 0 0 0 0 0 0 0 0 0 0 0 0 0 0 0 0 0 0 0
0 0 0 0 0 0 0 0 0 0 0 0 0 0 0 0 0 0 0 0 0 0 0 0 0 0 0 0 0 0 0 0 0 0 0 0 0 0 0 0 0 0 0
0 0 0 0 0 0 0 0 0 0 0 0 0 0 0 0 0 0 0 0 0 0 0 0 0 0 0 0 0 0 0 0 0 0 0 0 0 0 0 0 0 0 0
0 0 0 0 0 0 0 0 0 0 0 0 0 0 0 0 0 0 0 0 0 0 0 0 0 0 0 0 0 0 0 0 0 0 0 0 0 0 0 0 0 0 0
0 0 0 0 0 0 0 0 0 0 0 0 0 0 0 0 0 0 0 0 0 0 0 0 0 0 0 0 0 0 0 0 0 0 0 0 0 0 0 0 0 0 0
0 0 0 0 0 0 0 0 0 0 0 0 0 0 0 0 0 0 0 0 0 0 0 0 0 0 0 0 0 0 0 0 0 0 0 0 0 0 0 0 0 0 0
0 0 0 0 0 0 0 0 0 0 0 0 0 0 0 0 0 0 0 0 0 0 0 0 0 0 0 0 0 0 0 0 0 0 0 0 0 0 0 0 0 0 0
0 0 0 0 0 0 0 0 0 0 0 0 0 0 0 0 0 0 0 0 0 0 0 0 0 0 0 0 0 0 0 0 0 0 0 0 0 0 0 0 0 0 0
0 0 0 0 0 0 0 0 0 0 0 0 0 0 0 0 0 0 0 0 0 0 0 0 0 0 0 0 0 0 0 0 0 0 0 0 0 0 0 0 0 0 0
0 0 0 0 0 0 0 0 0 0 0 0 0 0 0 0 0 0 0 0 0 0 0 0 0 0 0 0 0 0 0 0 0 0 0 0 0 0 0 0 0 0 0
0 0 0 0 0 0 0 0 0 0 0 0 0 0 0 0 0 0 0 0 0 0 0 0 0 0 0 0 0 0 0 0 0 0 0 0 0 0 0 0 0 0 0
0 0 0 0 0 0 0 0 0 0 0 0 0 0 0 0 0 0 0 0 0 0 0 0 0 0 0 0 0 0 0 0 0 0 0 0 0 0 0 0 0 0 0
0 0 0 0 0 0 0 0 0 0 0 0 0 0 0 0 0 0 0 0 0 0 0 0 0 0 0 0 0 0 0 0 0 0 0 0 0 0 0 0 0 0 0
0 0 0 0 0 0 0 0 0 0 0 0 0 0 0 0 0 0 0 0 0 0 0 0 0 0 0 0 0 0 0 0 0 0 0 0 0 0 0 0 0 0 0
0 0 0 0 0 0 0 0 0 0 0 0 0 0 0 0 0 0 0 0 0 0 0 0 0 0 0 0 0 0 0 0 0 0 0 0 0 0 0 0 0 0 0
0 0 0 0 0 0 0 0 0 0 0 0 0 0 0 0 0 0 0 0 0 0 0 0 0 0 0 0 0 0 0 0 0 0 0 0 0 0 0 0 0 0 0
0 0 0 0 0 0 0 0 0 0 0 0 0 0 0 0 0 0 0 0 0 0 0 0 0 0 0 0 0 0 0 0 0 0 0 0 0 0 0 0 0 0 0
0 0 0 0 0 0 0 0 0 0 0 0 0 0 0 0 0 0 0 0 0 0 0 0 0 0 0 0 0 0 0 0 0 0 0 0 0 0 0 0 0 0 0
0 0 0 0 0 0 0 0 0 0 0 0 0 0 0 0 0 0 0 0 0 0 0 0 0 0 0 0 0 0 0 0 0 0 0 0 0 0 0 0 0 0 0
0 0 0 0 0 0 0 0 0 0 0 0 0 0 0 0 0 0 0 0 0 0 0 0 0 0 0 0 0 0 0 0 0 0 0 0 0 0 0 0 0 0 0
0 0 0 0 0 0 0 0 0 0 0 0 0 0 0 0 0 0 0 0 0 0 0 0 0 0 0 0 0 0 0 0 0 0 0 0 0 0 0 0 0 0 0
Wind_Speed
2 1 1 1 1 1 2 1 1 2 2 2 2 3 3 2 2 1 1 4 4 6 7 8 8 8 9 9 9 9 9 9 9 9 9 9 9 9 9 9 9 10 10
2 1 1 1 1 1 1 2 2 2 2 2 3 3 3 2 3 2 2 2 3 5 6 7 8 8 9 9 8 9 9 9 9 9 8 8 9 9 9 9 9 9 9
3 2 2 1 1 1 2 2 2 2 2 3 3 2 2 3 2 2 2 2 1 3 5 7 8 7 7 8 8 8 8 8 8 8 8 8 8 8 9 9 8 8 7
3 2 2 2 1 2 2 2 2 2 2 2 2 2 2 2 2 2 2 2 2 1 2 4 5 6 7 7 7 7 7 8 8 8 7 7 7 8 8 8 7 7 6
3 3 2 2 2 2 2 3 2 2 3 3 2 2 2 2 2 2 3 2 2 2 1 2 3 3 5 6 7 7 7 7 7 7 7 7 7 7 8 7 7 7 6
2 2 2 2 2 2 2 3 3 2 2 3 3 3 2 1 1 2 2 2 2 2 2 2 1 1 3 5 7 7 7 7 7 7 7 7 7 7 7 8 7 7 6
2 2 2 2 2 3 3 3 3 3 2 2 3 2 3 2 2 1 1 1 1 1 2 1 1 1 0 3 5 7 7 7 7 7 7 7 7 7 7 8 7 7 6
2 2 2 2 2 2 3 3 3 2 1 1 3 3 1 1 2 1 1 0 1 1 1 1 1 1 0 0 2 5 6 7 7 7 8 7 7 7 7 7 7 7 6
2 2 2 2 2 3 3 3 4 4 3 1 2 3 3 3 1 1 0 0 1 0 1 0 1 1 1 1 1 3 5 6 7 7 8 8 7 7 6 7 7 7 7
1 1 2 2 2 2 3 3 3 2 4 3 1 1 1 3 3 1 1 1 1 1 1 1 1 1 1 1 1 2 3 5 7 8 8 8 8 8 7 7 8 8 7
1 1 2 2 2 2 3 3 3 3 3 3 2 1 1 1 1 2 2 2 1 2 2 2 2 2 2 2 2 3 4 5 7 8 8 7 7 7 7 6 7 6 6
1 1 2 2 2 2 3 3 3 4 3 3 2 2 2 2 2 2 2 2 2 2 2 2 2 2 2 2 3 4 5 6 7 8 8 7 6 6 6 6 7 7 7
1 2 2 2 2 2 2 2 3 3 3 3 3 2 2 2 2 2 2 1 2 2 2 2 3 2 2 2 2 4 5 6 7 8 9 8 6 4 4 6 7 7 7
2 2 2 2 2 2 2 2 2 2 2 3 3 3 2 2 2 2 3 3 1 2 2 4 2 3 2 2 3 5 3 6 7 8 8 7 5 4 4 4 5 6 6
1 1 1 1 2 2 2 2 2 2 2 3 3 3 3 2 2 2 2 3 4 3 4 4 3 3 2 2 4 3 3 5 6 6 5 4 4 4 4 4 4 4 4
0 1 1 1 2 2 2 2 2 2 2 2 2 3 3 2 2 2 2 2 2 3 4 3 3 2 2 2 5 3 3 5 6 6 6 5 5 5 5 5 4 5 5
1 1 2 2 2 2 2 3 3 3 3 3 2 3 3 2 2 2 2 2 2 2 3 2 1 1 2 3 2 2 2 3 3 6 6 6 6 6 6 6 6 6 6
1 1 1 2 2 2 2 3 3 3 4 4 3 3 4 2 3 2 2 2 2 2 2 3 2 1 3 3 2 2 2 2 2 5 6 6 7 6 6 6 6 6 7
1 1 1 2 2 2 2 2 3 3 4 4 4 4 4 4 4 3 3 3 2 2 1 2 2 1 1 1 1 2 2 1 2 3 5 6 6 6 6 7 7 7 7
1 1 1 1 1 1 1 2 2 2 2 2 3 3 4 4 5 4 3 3 3 2 2 2 2 1 1 1 1 1 2 1 2 2 3 4 5 6 7 7 8 7 8
0 0 1 1 1 1 1 2 2 2 2 2 2 3 3 3 4 4 4 4 3 3 2 2 2 1 2 2 2 2 2 1 2 2 1 2 2 2 3 6 6 8 8
0 0 1 1 1 1 1 1 2 2 2 2 2 2 2 3 4 5 5 5 5 5 4 3 3 3 4 3 2 2 2 1 3 2 1 2 1 3 3 3 6 8 9
1 1 1 1 1 2 1 1 1 1 1 2 2 2 2 2 2 2 3 3 4 5 6 5 5 5 4 4 4 3 3 3 4 2 2 3 2 4 3 4 9 9 9
1 1 1 1 1 2 2 1 1 1 1 2 2 3 3 2 2 3 2 2 3 3 4 4 4 5 4 4 5 5 4 2 1 1 2 3 2 3 3 3 8 9 9
1 1 1 1 1 2 2 2 1 1 1 2 2 2 2 3 3 3 3 3 3 3 3 4 4 4 4 4 3 2 2 2 3 3 2 2 2 2 3 3 5 8 8
1 1 1 1 2 2 2 2 2 2 2 2 2 2 3 3 3 3 3 3 4 4 2 2 2 3 3 3 5 4 4 3 2 3 3 3 2 1 2 2 2 3 4
Wind_Direction
143 138 143 128 121 126 136 125 119 116 114 115 111 116 123 116 108 92 103 123 132 142 150 149 145 146 147 145 145 144 141 142 141 138 137 135 133 130 125 122 117 112 108
146 148 137 138 141 145 148 142 139 123 111 103 97 101 113 110 99 91 84 103 120 136 152 154 150 149 147 146 143 145 147 147 146 144 142 142 142 138 132 126 120 116 113
148 149 147 153 166 146 128 116 108 102 104 92 86 86 100 97 100 99 89 79 87 121 142 147 148 150 151 152 151 151 152 150 149 149 148 144 143 143 139 133 127 123 121
151 151 153 167 170 141 129 126 118 110 107 104 96 86 91 98 96 98 90 82 71 58 118 129 145 150 156 157 157 158 155 154 153 153 152 148 147 150 148 143 139 135 130
153 155 162 169 160 142 133 135 121 127 122 111 102 86 80 94 101 98 89 88 87 80 73 92 119 148 162 169 170 170 167 162 163 161 158 159 158 160 160 156 152 145 142
151 147 155 154 156 146 138 133 130 115 125 126 100 74 54 63 86 94 102 92 80 93 79 66 78 138 163 179 182 184 179 175 176 174 172 171 172 170 170 168 162 159 157
151 150 148 154 157 156 157 149 137 128 121 127 102 70 31 34 54 62 75 106 101 107 93 90 95 69 188 190 190 191 188 186 186 185 185 181 179 179 178 179 175 169 167
153 151 156 166 162 149 148 158 146 141 143 153 133 120 93 8 9 8 355 125 160 116 121 124 120 118 106 246 195 194 198 196 196 193 193 189 188 191 192 190 188 182 179
128 132 158 161 168 166 170 173 170 160 167 189 148 149 159 193 260 320 336 236 181 182 207 172 163 177 189 184 202 205 203 202 204 202 199 200 203 204 206 205 200 196 194
112 130 154 160 169 169 173 184 180 171 167 181 181 152 152 153 157 193 303 300 250 218 213 232 215 214 211 203 209 203 204 207 211 213 212 211 214 216 218 216 211 208 206
147 153 160 163 178 183 184 185 183 178 176 181 176 160 121 97 129 162 226 261 282 261 229 223 223 228 223 211 212 216 215 217 222 225 225 228 225 223 223 221 212 208 212
213 187 175 181 190 191 189 191 190 190 189 181 178 170 170 169 179 171 193 225 245 268 259 239 225 226 227 216 215 212 214 218 226 231 230 233 235 235 232 231 223 217 212
240 219 193 191 192 199 195 189 190 195 191 187 190 200 195 200 177 171 166 196 239 274 274 256 232 225 229 219 226 220 219 219 228 235 237 238 238 238 241 243 239 224 216
227 217 193 188 190 190 193 188 191 198 194 201 208 205 203 208 188 178 172 167 195 263 266 256 254 228 226 218 227 218 228 225 231 239 244 243 236 230 239 247 245 227 221
195 182 183 183 198 199 193 188 201 208 198 204 213 212 212 210 199 191 180 180 174 210 240 238 240 236 223 218 224 212 220 232 228 234 242 245 234 231 245 247 250 228 222
152 163 191 199 203 203 203 201 207 209 206 217 214 212 220 215 206 196 199 203 197 198 232 232 228 241 227 230 224 213 226 229 234 236 239 239 231 227 228 236 243 240 232
222 201 209 210 211 211 208 207 214 201 206 218 222 218 226 213 204 206 205 204 207 197 230 253 238 246 214 227 233 218 223 222 234 235 236 235 232 230 231 235 238 242 236
241 224 206 205 203 208 210 213 216 213 211 216 221 222 229 217 216 213 208 217 218 211 208 239 250 240 233 225 220 222 232 225 226 233 234 240 240 236 233 234 237 242 240
233 235 197 199 210 213 216 220 217 216 217 218 217 220 224 214 222 222 217 218 220 222 210 209 239 249 252 241 226 256 240 235 242 234 236 241 243 247 245 240 240 242 241
204 256 244 221 215 217 222 224 219 216 219 224 223 223 222 218 221 215 217 219 210 211 208 198 219 239 246 240 184 230 264 245 249 252 248 247 250 254 252 245 243 244 245
206 237 262 260 239 213 223 224 218 219 216 226 232 230 230 234 232 220 219 213 201 206 205 211 222 226 226 213 214 205 234 259 276 250 244 251 253 256 253 254 251 246 247
348 359 318 281 273 280 287 243 218 218 220 217 231 242 239 233 240 235 230 218 205 204 208 210 222 222 230 224 206 202 197 210 267 247 204 255 227 248 252 246 253 253 251
341 347 319 304 290 289 295 254 236 224 224 224 224 231 244 247 235 227 231 232 230 229 216 210 220 226 223 214 198 206 208 214 232 222 198 254 235 249 251 253 259 258 253
314 282 288 289 295 310 307 276 239 221 226 232 228 224 223 235 231 222 218 233 246 250 238 227 226 229 225 210 203 207 209 223 264 248 196 238 243 248 262 259 260 257 252
317 296 294 300 300 306 320 297 258 233 234 245 238 229 222 228 246 235 218 229 253 270 268 251 248 244 237 226 205 174 183 195 248 251 208 213 238 267 275 262 258 258 253
288 294 301 287 277 282 303 293 252 226 233 244 250 249 249 252 249 232 222 226 239 254 254 260 258 257 240 228 216 206 197 203 225 241 208 193 213 221 279 264 251 252 250